Satellite: CO-66
Catalog number: 32791
Epoch time:      11201.71263674
Element set:    0038
Inclination:      097.8465 deg
RA of node:       264.8331 deg
Eccentricity:    0.0017265
Arg of perigee:   066.9491 deg
Mean anomaly:     293.3507 deg
Mean motion:   14.82178206 rev/day
Decay rate:       3.17e-06 rev/day^2
Epoch rev:           17447
Checksum:              320

Satellite: RS-30
Catalog number: 32953
Epoch time:      11202.75766418
Element set:     923
Inclination:      082.5031 deg
RA of node:       141.2351 deg
Eccentricity:    0.0018396
Arg of perigee:   316.3390 deg
Mean anomaly:     043.6231 deg
Mean motion:   12.43014207 rev/day
Decay rate:        1.0e-07 rev/day^2
Epoch rev:           14338
Checksum:              251

Satellite: TACSAT-3
Catalog number: 35001
Epoch time:      11202.53758290
Element set:     647
Inclination:      040.4543 deg
RA of node:       323.9889 deg
Eccentricity:    0.0020442
Arg of perigee:   106.7660 deg
Mean anomaly:     253.5425 deg
Mean motion:   15.49974189 rev/day
Decay rate:     1.4705e-04 rev/day^2
Epoch rev:           12241
Checksum:              292

Satellite: PHARMSAT
Catalog number: 35002
Epoch time:      11202.51578307
Element set:     602
Inclination:      040.4706 deg
RA of node:       322.0777 deg
Eccentricity:    0.0022041
Arg of perigee:   112.7185 deg
Mean anomaly:     247.6001 deg
Mean motion:   15.49394262 rev/day
Decay rate:     1.2661e-04 rev/day^2
Epoch rev:           12243
Checksum:              243

Satellite: HAWKSAT1
Catalog number: 35003
Epoch time:      11202.54868387
Element set:     691
Inclination:      040.4464 deg
RA of node:       286.9138 deg
Eccentricity:    0.0016408
Arg of perigee:   128.9512 deg
Mean anomaly:     231.2777 deg
Mean motion:   15.70227909 rev/day
Decay rate:     8.6388e-04 rev/day^2
Epoch rev:           12282
Checksum:              315

Satellite: CP6
Catalog number: 35004
Epoch time:      11202.50879091
Element set:     697
Inclination:      040.4526 deg
RA of node:       275.5800 deg
Eccentricity:    0.0015025
Arg of perigee:   124.7857 deg
Mean anomaly:     235.4541 deg
Mean motion:   15.80871267 rev/day
Decay rate:    1.68790e-03 rev/day^2
Epoch rev:           12293
Checksum:              303

Satellite: METEOR-M
Catalog number: 35865
Epoch time:      11202.70360566
Element set:     567
Inclination:      098.7046 deg
RA of node:       257.3821 deg
Eccentricity:    0.0002196
Arg of perigee:   313.7895 deg
Mean anomaly:     046.3058 deg
Mean motion:   14.21840470 rev/day
Decay rate:       1.76e-06 rev/day^2
Epoch rev:            9549
Checksum:              308

Satellite: RS-38
Catalog number: 35869
Epoch time:      11202.69941451
Element set:     560
Inclination:      098.7017 deg
RA of node:       257.4120 deg
Eccentricity:    0.0004260
Arg of perigee:   303.7481 deg
Mean anomaly:     056.3254 deg
Mean motion:   14.22016829 rev/day
Decay rate:       1.77e-06 rev/day^2
Epoch rev:            9550
Checksum:              293

/EX
_______________________________________________
Via the Keps mailing list courtesy of AMSAT-NA
http://amsat.org/mailman/listinfo/keps

--- ViaMAIL!/WC v1.60d
 * Origin: Chowdanet (401-724-4410) telnet://chowdanet.com  (1:323/120)